Вернуться в каталог

SITRO-AIS-42

АктивенСвязьPO
NORAD 61756·PAYLOAD·🇷🇺 Russia
Это название спутника еще не подтверждено официальными источниками.

Запущен Nov 4, 2024 с Vostochny Cosmodrome

Loading…

Ближайшие Пролёты (ближайшие 24 часа)

TLE

СвежийSource: Space-Track

Эпоха: Sep 14, 2026, 20:04 UTC

1 61756U 24199X   26257.83673628  .00288605  32373-4  98693-3 0  9994
2 61756  97.2640 141.7466 0002749 100.3010 259.8573 15.89712652151924

Отслеживайте SITRO-AIS-42 в реальном времени с AllMySat

Download on the App Store